Location: Newark
(13.8117°N, 3.6025°W)
Time: 20:32:21
(UTC+00:00)

Explorer 11/Cluster Stage 4 - Pass Details

Date: 28 August 2019
Orbit: 467 x 1259 km, 28.8° (Epoch: 22 October)

Event Time Altitude Azimuth Distance (km) Brightness Sun altitude
Rises 06:46:00 0° 250° (WSW) 3,218 9.1 9.6°
Reaches altitude 10° 06:48:16 10° 253° (WSW) 2,405 8.5 10.1°
Maximum altitude 06:54:06 69° 335° (NNW) 1,021 7.3 11.5°
Drops below altitude 10° 07:01:22 10° 58° (ENE) 2,972 11.0 13.3°
Sets 07:04:26 0° 61° (ENE) 4,028 11.6 14.0°
